Flag for Saudi Arabia Weather past 2 weeks in Riyadh, Saudi Arabia

Now
93 °F

Clear.


Feels Like: 89 °F
Forecast: 86 / 108 °F
Wind: 9 mph from North

Location: King Khaled International Airport

Current Time: Jul 24, 2014 at 11:52:43 PM

Latest Report: Jul 24, 2014 at 11:00 PM


Visibility: 10 mi

Pressure: 29.71 "Hg

Humidity: 11%

Dew point: 32 °F

Location of RiyadhLocation

Historic Weather in Riyadh — Graph

°F

Riyadh temperature yesterday

Maximum temperature yesterday: 106 °F (at 3:00 PM)
Minimum temperature yesterday: 82 °F (at 5:00 AM)
Average temperature yesterday: 95 °F

Past Weeks' High & Low Weather Summary

 TemperatureHumidityPressure
High111 °F (Jul 10, 3:00 PM)26% (Jul 12, 6:00 AM)29.80 "Hg (Jul 12, 6:00 AM)
Low81 °F (Jul 12, 5:00 AM)5% (Jul 10, 2:00 PM)29.59 "Hg (Jul 18, 4:00 PM)
Average97 °F10%29.70 "Hg
* Reported Jul 9 11:00 PM — Jul 24 11:00 PM, Riyadh, Weather by CustomWeather, © 2014

Note: Actual official high and low records may vary slightly from our data, if they occured in-between our weather recording intervals... More about our weather records

Advertising

Riyadh weather history for previous 24 hours

 ConditionsComfort  
Time TempWeatherWind HumidityBarometerVisibility
11:00 PM
Jul 24
93 °FClear.9 mph11%29.71 "Hg10 mi
10:00 PM95 °FClear.8 mph11%29.71 "Hg10 mi
9:00 PM95 °FClear.8 mph10%29.71 "Hg10 mi
8:00 PM97 °FClear.12 mph10%29.68 "Hg10 mi
7:00 PM100 °FClear.12 mph9%29.68 "Hg10 mi
6:00 PM104 °FSunny.15 mph7%29.65 "Hg10 mi
5:00 PM106 °FSunny.16 mph8%29.65 "Hg10 mi
4:00 PM108 °FSunny.17 mph7%29.65 "Hg10 mi
3:00 PM106 °FSunny.21 mph8%29.65 "Hg10 mi
2:00 PM106 °FSunny.18 mph8%29.65 "Hg10 mi
1:00 PM106 °FSunny.16 mph8%29.68 "Hg10 mi
12:00 PM106 °FSunny.15 mph8%29.71 "Hg10 mi
11:00 AM104 °FSunny.14 mph9%29.74 "Hg10 mi
10:00 AM100 °FSunny.9 mph9%29.74 "Hg10 mi
9:00 AM97 °FSunny.7 mph10%29.74 "Hg10 mi
8:00 AM91 °FSunny.6 mph11%29.74 "Hg10 mi
7:00 AM86 °FSunny.6 mph13%29.74 "Hg10 mi
6:00 AM81 °FSunny.3 mph16%29.71 "Hg10 mi
5:00 AM82 °FClear.5 mph15%29.71 "Hg10 mi
4:00 AM84 °FClear.6 mph15%29.68 "Hg10 mi
3:00 AM84 °FClear.3 mph14%29.68 "Hg10 mi
2:00 AM86 °FClear.6 mph14%29.71 "Hg10 mi
1:00 AM88 °FClear.6 mph13%29.71 "Hg10 mi
12:00 AM88 °FClear.6 mph13%29.71 "Hg10 mi
11:00 PM
Jul 23
91 °FClear.7 mph12%29.74 "Hg10 mi
Weather by CustomWeather, © 2014

See weather overviewHow to use our weather pages